• Join FlightAware (Why Join?)
  • Login
  • US Flag 
Gobble Gobble! 
07:41PM EST


 

Airport Tracker/Info


-or-


 

Live Flight TrackerFlight Track Log ✈ AWE1940 ✈ 21-Aug-2013 ✈ KTPA - KCLT

Flight Track Log - Related Links

Times and Time Zones

All times are in EDT time to prevent confusion due to time zone crossing. See the AWE1940 flight status page for this flight to view local times or setup timezone preferences in your user account.

Time Position Orientation Groundspeed Altitude Reporting Facility
EDT Latitude Longitude Course Direction KTS MPH feet Rate Location/Type
07:24PM 28.0000 -82.5333 19° North 159 183 600  Level Tampa TRACON
07:26PM 28.1203 -82.5583 350° North 256 295 4,900 2,220 Climbing Jacksonville Center
07:27PM 28.1997 -82.5675 354° North 277 319 7,800 2,760 Climbing Jacksonville Center
07:28PM 28.3957 -82.3484 19° North  Level FlightAware Approximate
07:28PM 28.2853 -82.5744 356° North 287 330 10,500  Level Jacksonville Center
07:29PM 28.5032 -82.3054 19° North  Level FlightAware Approximate
07:29PM 28.3811 -82.5789 358° North 318 366 11,900  Level Jacksonville Center
07:30PM 28.4875 -82.5831 358° North 356 410 14,200 2,460 Climbing Jacksonville Center
07:31PM 28.5942 -82.5922 356° North 374 430 16,900 2,160 Climbing Jacksonville Center
07:32PM 28.7025 -82.5944 359° North 385 443 18,600 1,800 Climbing Jacksonville Center
07:33PM 28.8133 -82.5986 358° North 385 443 20,500 1,680 Climbing Jacksonville Center
07:35PM 29.0469 -82.6100 358° North 408 470 23,700 1,500 Climbing Jacksonville Center
07:36PM 29.1661 -82.6144 358° North 420 483 25,100 1,500 Climbing Jacksonville Center
07:37PM 29.2892 -82.6186 358° North 425 489 26,700 1,560 Climbing Jacksonville Center
07:38PM 29.4103 -82.6208 359° North 425 489 28,300 1,800 Climbing Jacksonville Center
07:39PM 29.5458 -82.6228 359° North 431 496 30,400 1,380 Climbing Jacksonville Center
07:40PM 29.6692 -82.6153 North 431 496 31,100 1,260 Climbing Jacksonville Center
07:41PM 29.7903 -82.6053 North 437 503 33,000 1,440 Climbing Jacksonville Center
07:42PM 29.9133 -82.5956 North 437 503 34,000 960 Climbing Jacksonville Center
07:43PM 30.0094 -82.5903 North 437 503 35,000 480 Climbing Jacksonville Center
07:44PM 30.1472 -82.5850 North 437 503 35,000  Level Jacksonville Center
07:45PM 30.2725 -82.5728 North 442 509 35,000 -60 Level Jacksonville Center
07:46PM 30.3997 -82.5625 North 442 509 34,900 -60 Descending Jacksonville Center
07:47PM 30.5208 -82.5283 14° North 442 509 34,900  Level Jacksonville Center
07:48PM 30.6311 -82.4556 30° Northeast 442 509 34,900  Level Jacksonville Center
07:49PM 30.7331 -82.3706 36° Northeast 437 503 35,000  Climbing Jacksonville Center
07:50PM 30.8372 -82.2828 36° Northeast 448 516 35,000  Level Jacksonville Center
07:51PM 30.9411 -82.1997 34° Northeast 454 522 35,000  Level Jacksonville Center
07:52PM 31.0450 -82.1142 35° Northeast 454 522 35,000  Level Jacksonville Center
07:53PM 31.1508 -82.0283 35° Northeast 454 522 35,000  Level Jacksonville Center
07:54PM 31.2547 -81.9447 35° Northeast 449 517 35,000  Level Jacksonville Center
07:55PM 31.3647 -81.8489 37° Northeast 443 510 35,000  Level Jacksonville Center
07:56PM 31.4683 -81.7647 35° Northeast 443 510 35,000  Level Jacksonville Center
07:57PM 31.5700 -81.6806 35° Northeast 449 517 35,000  Level Jacksonville Center
07:58PM 31.6733 -81.5964 35° Northeast 451 519 35,000  Level Jacksonville Center
07:59PM 31.7667 -81.5192 35° Northeast 440 506 35,000  Level Jacksonville Center
08:00PM 31.8761 -81.4247 36° Northeast 446 513 35,000 -60 Level Jacksonville Center
08:01PM 31.9817 -81.3372 35° Northeast 454 522 34,900  Descending Jacksonville Center
08:02PM 32.0808 -81.2522 36° Northeast 443 510 35,000  Climbing Jacksonville Center
08:03PM 32.1903 -81.1717 32° Northeast 450 518 35,000  Level Jacksonville Center
08:04PM 32.3000 -81.0983 29° Northeast 450 518 35,000  Level Jacksonville Center
08:05PM 32.4139 -81.0272 28° Northeast 450 518 35,000  Level Jacksonville Center
08:06PM 32.5211 -80.9511 31° Northeast 449 517 35,000  Level Jacksonville Center
08:07PM 32.6306 -80.8797 29° Northeast 449 517 35,000  Level Jacksonville Center
08:08PM 32.7400 -80.8056 30° Northeast 455 524 35,000  Level Jacksonville Center
08:09PM 32.8517 -80.7314 29° Northeast 455 524 35,000 -120 Level Jacksonville Center
08:10PM 32.9650 -80.6569 29° Northeast 455 524 34,800 -840 Descending Jacksonville Center
08:11PM 33.0744 -80.5847 29° Northeast 455 524 33,400 -1,680 Descending Jacksonville Center
08:12PM 33.1858 -80.5075 30° Northeast 455 524 31,500 -1,920 Descending Jacksonville Center
08:13PM 33.3011 -80.4297 29° Northeast 455 524 29,600 -2,040 Descending Jacksonville Center
08:14PM 33.4103 -80.3544 30° Northeast 455 524 27,500 -2,280 Descending Jacksonville Center
08:15PM 33.5194 -80.2817 29° Northeast 455 524 25,100 -2,100 Descending Jacksonville Center
08:16PM 33.6242 -80.2089 30° Northeast 444 511 23,400 -1,560 Descending Jacksonville Center
08:17PM 33.7292 -80.1356 30° Northeast 439 505 22,000 -1,080 Descending Jacksonville Center
08:18PM 33.8317 -80.0625 31° Northeast 433 498 21,300 -840 Descending Jacksonville Center
08:19PM 33.9283 -79.9992 29° Northeast 416 479 20,400 -1,080 Descending Jacksonville Center
08:20PM 34.0208 -79.9311 31° Northeast 396 456 19,200 -1,200 Descending Jacksonville Center
08:21PM 34.1208 -79.9278 North 363 418 18,000 -1,200 Descending Jacksonville Center
08:22PM 34.2119 -79.9872 332° Northwest 340 391 16,900 -1,260 Descending Jacksonville Center
08:23PM 34.2986 -80.0422 332° Northwest 347 399 15,500 -1,500 Descending Jacksonville Center
08:24PM 34.3814 -80.0972 331° Northwest 342 394 14,000 -1,500 Descending Jacksonville Center
08:25PM 34.4617 -80.1503 331° Northwest 336 387 12,600 -1,200 Descending Jacksonville Center
08:26PM 34.5400 -80.2031 331° Northwest 325 374 11,700 -780 Descending Jacksonville Center
08:28PM 34.6253 -80.2625 330° Northwest 322 371 11,000 -360 Descending Atlanta Center
08:28PM 34.6814 -80.3206 320° Northwest 316 364 11,000  Level Atlanta Center
08:29PM 34.7353 -80.3839 316° Northwest 291 335 11,000  Level Atlanta Center
08:30PM 34.7961 -80.4622 313° West 292 336 11,000  Level Atlanta Center
08:31PM 34.8611 -80.5431 314° West 294 338 11,000  Level Atlanta Center
08:33PM 34.9214 -80.6139 316° Northwest 293 337 11,000 -240 Level Atlanta Center
08:34PM 34.9778 -80.6850 314° West 294 338 10,600 -960 Descending Atlanta Center
08:35PM 35.0317 -80.7564 313° West 291 335 9,100 -840 Descending Atlanta Center
08:36PM 35.0961 -80.8225 320° Northwest 291 335 9,000 -60 Descending Atlanta Center
08:36PM 35.1714 -80.8297 356° North 296 341 9,000 -600 Level Atlanta Center
08:38PM 35.2572 -80.8367 356° North 239 275 7,800 -1,140 Descending Atlanta Center
08:39PM 35.3156 -80.8419 356° North 243 280 6,600 -1,500 Descending Atlanta Center
08:40PM 35.3867 -80.8467 357° North 237 273 5,000 -1,320 Descending Atlanta Center
08:41PM 35.3967 -80.9075 281° West 193 222 4,000 -840 Descending Atlanta Center
08:42PM 35.3597 -80.9344 211° Southwest 146 168 3,400 -660 Descending Atlanta Center
08:43PM 35.3247 -80.9458 195° South 120 138 2,700 -720 Descending Atlanta Center
08:44PM 35.2911 -80.9447 178° South 127 146 2,100 -780 Descending Atlanta Center
08:45PM 35.2514 -80.9411 176° South 131 151 1,300 -840 Descending Atlanta Center